Regional Weather Roundup
Issued by NWS Little Rock, AR

Home | Current Version | Previous Version | Text Only | Print | Product List | Glossary Off
Versions: 1 2 3 4 5 6 7 8 9 10 11 12 13 14 15 16 17 18 19 20 21 22 23 24 25 26 27 28 29 30 31 32 33 34 35 36 37 38 39 40 41 42 43 44 45 46 47 48 49 50

000
ASUS44 KLZK 031405
RWRLZK

WEATHER ROUNDUP FOR ARKANSAS
NATIONAL WEATHER SERVICE LITTLE ROCK AR
800 AM CST TUE MAR 03 2015

NOTE: "FAIR" INDICATES FEW OR NO CLOUDS BELOW 12,000 FEET WITH NO
SIGNIFICANT WEATHER AND/OR OBSTRUCTIONS TO VISIBILITY.

ARZ001-003-010-029-031500-
NORTHWEST ARKANSAS

CITY           SKY/WX    TMP DP  RH WIND       PRES   REMARKS
FAYETTEVILLE   FOG       43  43 100 SW10      29.95R VSB 1
FORT SMITH     FOG       36  35  96 NE7       30.01R VSB 3/4
HARRISON       CLOUDY    45  45 100 SE3       29.92R
BENTONVILLE    CLOUDY    43  39  87 SW13G21   29.93F VSB 1
ROGERS         LGT RAIN  43  42  97 S18G25    29.92F FOG
SILOAM SPGS    CLOUDY    39  36  87 S12G17    29.95F VSB 3/4
HIGHFILL       FOG       41  41 100 SW18      29.91F VSB 1
SPRINGDALE     FOG       43  43 100 SW15      29.96R VSB 1/4
$$

ARZ004-005-016-031500-
NORTH CENTRAL ARKANSAS

CITY           SKY/WX    TMP DP  RH WIND       PRES   REMARKS
BATESVILLE     CLOUDY    34  30  86 S10       30.03F WCI  26
FLIPPIN        CLOUDY    39  36  87 CALM      29.95R
MTN HOME       CLOUDY    38  37  97 S3        29.95R FOG
$$

ARZ040-041-031500-
WEST CENTRAL ARKANSAS

CITY           SKY/WX    TMP DP  RH WIND       PRES   REMARKS
MENA           CLOUDY    41  39  93 N3        30.01R VSB 3/4
MOUNT IDA      FOG       37  36  96 CALM      30.00R VSB 3/4
$$

ARZ009-017-025-026-028-031500-
NORTHEAST ARKANSAS

CITY           SKY/WX    TMP DP  RH WIND       PRES   REMARKS
CORNING        FAIR      36  36 100 W9        30.04R FOG
JONESBORO      FOG       34  34 100 S7        30.05R VSB 1/2 WCI  28
NEWPORT        CLOUDY    34  34 100 S10       30.06S FOG     WCI  26
WALNUT RIDGE   CLOUDY    36  32  87 SW10      30.04R
BLYTHEVILLE    FOG       38  38 100 S10       30.06S VSB 1/4
$$

ARZ022-023-033-042-044-031500-
CENTRAL ARKANSAS

CITY           SKY/WX    TMP DP  RH WIND       PRES   REMARKS
LITTLE ROCK    FOG       37  34  89 SW7       30.08R VSB 1/4
N LITTLE ROCK  CLOUDY    36  36 100 S7        30.08R
JACKSONVILLE   CLOUDY    37  36  99 S6        30.06S FOG
SEARCY         FOG       35  34  96 S3        30.08R VSB 1
HOT SPRINGS    FOG       36  36 100 CALM      30.06S VSB 1/4
RUSSELLVILLE   HAZE      58  35  42 SE6       30.02F VSB 1
CLINTON        FOG       34  34 100 CALM      30.05S VSB 3/4
$$

ARZ036-031500-
EAST ARKANSAS

CITY           SKY/WX    TMP DP  RH WIND       PRES   REMARKS
WEST MEMPHIS   FOG       41  41 100 S6        30.06F VSB 3/4
$$

ARZ050-053-066-070-073-031500-
SOUTHWEST ARKANSAS

CITY           SKY/WX    TMP DP  RH WIND       PRES   REMARKS
ARKADELPHIA    FOG       37  37 100 CALM      30.08S VSB 1/4
CAMDEN         FOG       39  37  93 CALM      30.09S VSB 1/2
TEXARKANA      FOG       40  40 100 S3        30.06S VSB 1/2
EL DORADO      FOG       40  40 100 CALM      30.08S VSB 3/4
DE QUEEN       FOG       37  36  96 E3        30.05S VSB 1/4
$$

ARZ056-057-069-031500-
SOUTHEAST ARKANSAS

CITY           SKY/WX    TMP DP  RH WIND       PRES   REMARKS
PINE BLUFF     FOG       37  37 100 S5        30.08F VSB 1/2
STUTTGART      CLOUDY    37  36  93 S7        30.08R
MONTICELLO     FOG       41  39  93 CALM      30.09S VSB 1/2

$$




USA.gov is the U.S. government's official web portal to all federal, state and local government web resources and services.